Philadelphia, PA

3:49 PM EST on December 06, 2016 (GMT -0500)
Philadelphia International

Weather History for KPHL - March, 2014

Change the Weather History Date:

Sunday, March 9, 2014

  Actual Average Record
Temperature  
Mean Temperature 43 °F 41 °F  
Max Temperature 48 °F 50 °F 82 °F (2016)
Min Temperature 38 °F 32 °F 12 °F (1960)
Degree Days  
Heating Degree Days 22 24  
Month to date heating degree days 290 224  
Since 1 July heating degree days 3946 3706  
Cooling Degree Days 0 0  
Month to date cooling degree days 0 0  
Year to date cooling degree days 0 0  
Moisture  
Dew Point 24 °F    
Average Humidity 52    
Maximum Humidity 79    
Minimum Humidity 25    
Precipitation  
Precipitation 0.01 in 0.11 in 0.94 in (1893)
Month to date precipitation 0.39 0.98  
Year to date precipitation 9.06 6.66  
Snow  
Snow 0.00 in 0.10 in 6.90 in (1976)
Month to date snowfall 3.4 1.3  
Since 1 July snowfall 62.9 20.3  
Snow Depth 0.00 in    
Sea Level Pressure  
Sea Level Pressure 30.01 in    
Wind  
Wind Speed 11 mph (NW)    
Max Wind Speed 20 mph    
Max Gust Speed 27 mph    
Visibility 8 miles    
Events Rain    
T = Trace of Precipitation, MM = Missing Value Source: NWS Daily Summary

Daily Weather History Graph

Daily Weather History Graph

Search for Another Location

Airport or City:

Trip Planner

Search our weather history database for the weather conditions in past years. The results will help you decide how hot, cold, wet, or windy it might be!

Date:

Astronomy

Mar. 09, 2014 Rise Set
Actual Time 7:21 AM EDT 7:01 PM EDT
Civil Twilight 6:54 AM EDT 7:28 PM EDT
Nautical Twilight 6:23 AM EDT 7:59 PM EDT
Astronomical Twilight 5:52 AM EDT 8:31 PM EDT
Moon 12:52 PM EDT (3/9) 3:45 AM EDT (3/9)
Length of Visible Light 12h 33m
Length of Day
11h 39m
First Quarter, 61% of the Moon is Illuminated
Mar 9
First Quarter
Mar 16
Full
Mar 23
Last Quarter
Mar 30
New
Apr 7
First Quarter

Hourly Weather History & Observations

Time (EDT) Temp. Windchill Dew Point Humidity Pressure Visibility Wind Dir Wind Speed Gust Speed Precip Events Conditions
12:54 AM 46.0 °F 42.5 °F 33.1 °F 61% 29.92 in 9.0 mi NNW 6.9 mph - 0.00 in   Overcast
1:54 AM 44.1 °F 39.5 °F 35.1 °F 71% 29.94 in 8.0 mi NNW 8.1 mph - 0.00 in Rain Light Rain
3:54 AM 43.0 °F 37.7 °F 34.0 °F 71% 29.94 in 7.0 mi NNW 9.2 mph - 0.00 in Rain Light Rain
4:47 AM 41.0 °F 35.2 °F 34.0 °F 76% 29.94 in 7.0 mi NNW 9.2 mph - 0.00 in Rain Light Rain
4:54 AM 41.0 °F 34.7 °F 35.1 °F 79% 29.95 in 7.0 mi NNW 10.4 mph - 0.00 in Rain Light Rain
5:46 AM 39.0 °F 34.8 °F 33.1 °F 79% 29.96 in 7.0 mi North 5.8 mph - 0.01 in   Overcast
5:54 AM 39.0 °F 34.0 °F 33.1 °F 79% 29.96 in 7.0 mi North 6.9 mph - 0.01 in   Overcast
6:29 AM 39.0 °F 33.4 °F 32.0 °F 76% 29.97 in 7.0 mi North 8.1 mph - N/A   Overcast
6:48 AM 39.2 °F 32.0 °F 30.2 °F 70% 29.98 in 5.0 mi North 11.5 mph - N/A   Haze
6:54 AM 39.0 °F 32.3 °F 30.9 °F 73% 29.98 in 5.0 mi North 10.4 mph - N/A   Haze
7:06 AM 39.0 °F 31.8 °F 30.9 °F 73% 29.99 in 5.0 mi North 11.5 mph - N/A   Haze
7:27 AM 39.0 °F 32.3 °F 30.9 °F 73% 30.00 in 5.0 mi NNW 10.4 mph - N/A   Haze
7:54 AM 39.0 °F 32.3 °F 30.9 °F 73% 30.01 in 5.0 mi NNW 10.4 mph 17.3 mph N/A   Haze
8:11 AM 39.0 °F 32.3 °F 30.9 °F 73% 30.02 in 5.0 mi NNW 10.4 mph - N/A   Haze
8:54 AM 39.9 °F 32.9 °F 30.0 °F 68% 30.04 in 5.0 mi NNW 11.5 mph - N/A   Haze
9:17 AM 39.9 °F 32.9 °F 27.0 °F 60% 30.05 in 8.0 mi NNW 11.5 mph - N/A   Scattered Clouds
9:54 AM 41.0 °F 32.8 °F 24.1 °F 51% 30.05 in 9.0 mi WNW 16.1 mph - N/A   Scattered Clouds
10:07 AM 39.9 °F 31.1 °F 21.0 °F 47% 30.06 in 10.0 mi NW 17.3 mph - N/A   Scattered Clouds
10:54 AM 43.0 °F 35.7 °F 21.0 °F 42% 30.06 in 10.0 mi NNW 15.0 mph - N/A   Scattered Clouds
11:54 AM 44.1 °F 36.8 °F 17.1 °F 34% 30.06 in 10.0 mi NW 16.1 mph 20.7 mph N/A   Scattered Clouds
12:54 PM 44.1 °F 39.0 °F 17.1 °F 34% 30.06 in 10.0 mi NNW 9.2 mph - N/A   Scattered Clouds
1:54 PM 44.1 °F 36.5 °F 14.0 °F 30% 30.05 in 10.0 mi NW 17.3 mph - N/A   Scattered Clouds
2:54 PM 44.1 °F 37.4 °F 14.0 °F 30% 30.04 in 10.0 mi WNW 13.8 mph 19.6 mph N/A   Scattered Clouds
3:54 PM 45.0 °F 38.5 °F 14.0 °F 29% 30.03 in 10.0 mi NW 13.8 mph - N/A   Mostly Cloudy
4:54 PM 43.0 °F 37.2 °F 12.9 °F 30% 30.02 in 10.0 mi WNW 10.4 mph 23.0 mph N/A   Mostly Cloudy
5:54 PM 44.1 °F 37.7 °F 10.9 °F 26% 30.02 in 10.0 mi WNW 12.7 mph - N/A   Mostly Cloudy
6:54 PM 42.1 °F 35.7 °F 12.0 °F 29% 30.02 in 10.0 mi WNW 11.5 mph - N/A   Mostly Cloudy
7:54 PM 41.0 °F 34.3 °F 14.0 °F 33% 30.04 in 10.0 mi West 11.5 mph - N/A   Scattered Clouds
8:54 PM 41.0 °F 35.2 °F 14.0 °F 33% 30.04 in 10.0 mi West 9.2 mph - N/A   Scattered Clouds
9:54 PM 39.9 °F 35.8 °F 14.0 °F 35% 30.05 in 10.0 mi West 5.8 mph - N/A   Mostly Cloudy
10:54 PM 39.0 °F 34.0 °F 17.1 °F 41% 30.04 in 10.0 mi WSW 6.9 mph - N/A   Mostly Cloudy
11:54 PM 37.9 °F 32.1 °F 18.0 °F 45% 30.01 in 10.0 mi SW 8.1 mph - N/A   Overcast
12:54 AM 37.9 °F 33.5 °F 18.0 °F 45% 29.98 in 10.0 mi WSW 5.8 mph - N/A   Overcast